Hourly Data Report for July 27, 2021

MIRAMICHI RCS
NEW BRUNSWICK
Current Station Operator: ECCC - MSC

47°00'34.000" N
65°27'54.000" W
33.00 m
8100989
71744
ACQ

Download Data

Hourly Data (July 2021)
Hourly Data Report for July 27, 2021
TIME
LST
Temp Definition
°C
Dew Point Definition
°C
Rel Hum Definition
%
Precip. Amount Definition
mm

Wind Dir Definition
10's deg

Wind Spd Definition
km/h
Visibility Definition
km
Stn Press Definition
kPa
Hmdx Definition


Wind Chill Definition


Weather Definition


00:00 18.6 18.0 96 0.0 23 11   100.37     LegendNANA
01:00 19.0 18.3 96 0.0 23 12   100.35     LegendNANA
02:00 19.4 18.6 95 0.0 23 11   100.31     LegendNANA
03:00 19.5 18.7 95 0.0 28 4   100.36     LegendNANA
04:00 19.5 18.7 95 0.0 23 7   100.35     LegendNANA
05:00 19.0 18.1 95 0.0 20 8   100.33     LegendNANA
06:00 19.1 18.0 93 0.0 23 11   100.36     LegendNANA
07:00 19.2 18.1 93 0.0 24 10   100.40     LegendNANA
08:00 19.7 17.5 87 0.0 24 13   100.44     LegendNANA
09:00 20.0 16.9 82 0.0 25 10   100.44 25   LegendNANA
10:00 22.1 16.2 69 0.0 30 7   100.42 27   LegendNANA
11:00 24.0 16.0 61 0.0 27 6   100.43 29   LegendNANA
12:00 24.9 16.4 59 0.0 28 10   100.40 30   LegendNANA
13:00 21.8 17.0 74 0.0 32 11   100.40 27   LegendNANA
14:00 21.5 17.5 78 3.5 1 5   100.38 27   LegendNANA
15:00 23.8 16.9 66 0.0 3 6   100.41 29   LegendNANA
16:00 24.6 15.7 58 0.0 33 5   100.41 29   LegendNANA
17:00 24.9 15.1 54 0.0 29 18   100.44 29   LegendNANA
18:00 24.3 14.7 55 0.0 26 11   100.49 28   LegendNANA
19:00 22.6 14.0 58 0.0 30 11   100.57 26   LegendNANA
20:00 19.9 12.7 63 0.0 28 11   100.64     LegendNANA
21:00 18.2 12.0 67 0.0 30 8   100.72     LegendNANA
22:00 16.7 11.0 69 0.0 29 4   100.72     LegendNANA
23:00 15.2 10.4 73 0.0 30 7   100.71     LegendNANA

Notes on Data Quality.

Legend

  • E = Estimated
  • M = Missing
  • NA = Not Available*
  • [empty] = Indicates an unobserved value
Date modified: